SCP
0 0 0 0 0 0 0 0 0 0 0 0 0 0 0 0 0 0 0 0 0 0 0 0 0 0 0 0 0 0 0 0 0 0 0 0 0 0 0 0 0 0 0
0 0 0 0 0 0 0 0 0 0 0 0 0 0 0 0 0 0 0 0 0 0 0 0 0 0 0 0 0 0 0 0 0 0 0 0 0 0 0 0 0 0 0
0 0 0 0 0 0 0 0 0 0 0 0 0 0 0 0 0 0 0 0 0 0 0 0 0 0 0 0 0 0 0 0 0 0 0 0 0 0 0 0 0 0 0
0 0 0 0 0 0 0 0 0 0 0 0 0 0 0 0 0 0 0 0 0 0 0 0 0 0 0 0 0 0 0 0 0 0 0 0 0 0 0 0 0 0 0
0 0 0 0 0 0 0 0 0 0 0 0 0 0 0 0 0 0 0 0 0 0 0 0 0 0 0 0 0 0 0 0 0 0 0 0 0 0 0 0 0 0 0
0 0 0 0 0 0 0 0 0 0 0 0 0 0 0 0 0 0 0 0 0 0 0 0 0 0 0 0 0 0 0 0 0 0 0 0 0 0 0 0 0 0 0
0 0 0 0 0 0 0 0 0 0 0 0 0 0 0 0 0 0 0 0 0 0 0 0 0 0 0 0 0 0 0 0 0 0 0 0 0 0 0 0 0 0 0
0 0 0 0 0 0 0 0 0 0 0 0 0 0 0 0 0 0 0 0 0 0 0 0 0 0 0 0 0 0 0 0 0 0 0 0 0 0 0 0 0 0 0
0 0 0 0 0 0 0 0 0 0 0 0 0 0 0 0 0 0 0 0 0 0 0 0 0 0 0 0 0 0 0 0 0 0 0 0 0 0 0 0 0 0 0
0 0 0 0 0 0 0 0 0 0 0 0 0 0 0 0 0 0 0 0 0 0 0 0 0 0 0 0 0 0 0 0 0 0 0 0 0 0 0 0 0 0 0
0 0 0 0 0 0 0 0 0 0 0 0 0 0 0 0 0 0 0 0 0 0 0 0 0 0 0 0 0 0 0 0 0 0 0 0 0 0 0 0 0 0 0
0 0 0 0 0 0 0 0 0 0 0 0 0 0 0 0 0 0 0 0 0 0 0 0 0 0 0 0 0 0 0 0 0 0 0 0 0 0 0 0 0 0 0
0 0 0 0 0 0 0 0 0 0 0 0 0 0 0 0 0 0 0 0 0 0 0 0 0 0 0 0 0 0 0 0 0 0 0 0 0 0 0 0 0 0 0
0 0 0 0 0 0 0 0 0 0 0 0 0 0 0 0 0 0 0 0 0 0 0 0 0 0 0 0 0 0 0 0 0 0 0 0 0 0 0 0 0 0 0
0 0 0 0 0 0 0 0 0 0 0 0 0 0 0 0 0 0 0 0 0 0 0 0 0 0 0 0 0 0 0 0 0 0 0 0 0 0 0 0 0 0 0
0 0 0 0 0 0 0 0 0 0 0 0 0 0 0 0 0 0 0 0 0 0 0 0 0 0 0 0 0 0 0 0 0 0 0 0 0 0 0 0 0 0 0
0 0 0 0 0 0 0 0 0 0 0 0 0 0 0 0 0 0 0 0 0 0 0 0 0 0 0 0 0 0 0 0 0 0 0 0 0 0 0 0 0 0 0
0 0 0 0 0 0 0 0 0 0 0 0 0 0 0 0 0 0 0 0 0 0 0 0 0 0 0 0 0 0 0 0 0 0 0 0 0 0 0 0 0 0 0
0 0 0 0 0 0 0 0 0 0 0 0 0 0 0 0 0 0 0 0 0 0 0 0 0 0 0 0 0 0 0 0 0 0 0 0 0 0 0 0 0 0 0
0 0 0 0 0 0 0 0 0 0 0 0 0 0 0 0 0 0 0 0 0 0 0 0 0 0 0 0 0 0 0 0 0 0 0 0 0 0 0 0 0 0 0
0 0 0 0 0 0 0 0 0 0 0 0 0 0 0 0 0 0 0 0 0 0 0 0 0 0 0 0 0 0 0 0 0 0 0 0 0 0 0 0 0 0 0
0 0 0 0 0 0 0 0 0 0 0 0 0 0 0 0 0 0 0 0 0 0 0 0 0 0 0 0 0 0 0 0 0 0 0 0 0 0 0 0 0 0 0
0 0 0 0 0 0 0 0 0 0 0 0 0 0 0 0 0 0 0 0 0 0 0 0 0 0 0 0 0 0 0 0 0 0 0 0 0 0 0 0 0 0 0
0 0 0 0 0 0 0 0 0 0 0 0 0 0 0 0 0 0 0 0 0 0 0 0 0 0 0 0 0 0 0 0 0 0 0 0 0 0 0 0 0 0 0
0 0 0 0 0 0 0 0 0 0 0 0 0 0 0 0 0 0 0 0 0 0 0 0 0 0 0 0 0 0 0 0 0 0 0 0 0 0 0 0 0 0 0
0 0 0 0 0 0 0 0 0 0 0 0 0 0 0 0 0 0 0 0 0 0 0 0 0 0 0 0 0 0 0 0 0 0 0 0 0 0 0 0 0 0 0
Wind_Speed
5 5 4 4 4 4 4 4 4 5 5 5 5 5 5 5 6 5 4 11 12 13 13 12 11 11 10 9 9 9 8 8 8 8 8 8 7 8 8 8 8 8 8
6 6 6 6 6 5 5 5 6 5 5 4 5 6 5 5 6 6 5 8 12 13 14 14 13 12 12 11 10 10 9 9 8 8 7 7 7 6 6 6 6 6 6
7 7 7 7 7 6 6 5 6 4 4 5 6 6 5 5 6 7 7 5 7 11 14 15 15 14 13 13 12 11 10 9 8 8 7 7 6 5 5 5 4 4 4
9 8 7 7 7 6 6 6 5 5 5 5 4 4 4 4 6 7 6 6 5 6 10 15 15 15 15 14 14 13 12 10 9 8 8 7 6 5 4 4 3 2 2
9 7 7 6 6 6 6 7 6 5 5 5 5 5 4 4 5 6 7 7 7 7 6 11 14 15 15 16 15 14 13 12 10 9 8 7 6 6 4 3 2 1 1
7 7 6 6 6 6 6 6 6 6 5 5 5 5 5 4 4 5 8 7 7 8 8 7 7 10 14 16 16 16 15 13 12 10 9 8 7 6 5 4 3 3 3
6 6 5 5 6 7 8 8 6 6 6 3 3 3 3 4 5 5 5 6 8 9 8 9 7 6 7 15 17 17 16 15 13 12 11 9 8 7 6 5 5 4 4
5 5 6 5 6 6 7 8 7 5 5 5 4 3 3 3 5 7 6 7 9 7 9 11 9 8 7 5 9 15 16 16 15 13 11 10 9 8 7 6 6 6 6
5 5 6 6 6 6 7 8 8 8 7 5 5 5 5 7 4 3 6 7 7 7 8 7 10 10 9 7 7 12 14 14 15 14 12 11 10 9 8 8 8 7 7
4 5 5 6 6 6 7 8 8 7 7 6 5 5 4 3 4 3 3 4 6 7 8 8 9 10 10 7 9 12 14 14 15 14 13 12 11 10 9 9 8 8 8
3 4 4 4 5 5 6 7 7 7 7 7 6 4 5 4 3 3 5 3 3 4 5 6 6 7 8 8 7 11 16 17 17 15 14 13 11 10 10 9 9 9 9
3 4 4 3 3 3 5 5 6 7 7 8 6 5 5 5 6 6 8 6 4 2 1 2 3 3 4 5 8 14 17 18 17 16 14 12 11 10 10 9 9 10 10
3 4 4 3 3 3 4 4 4 5 6 7 7 7 7 7 4 4 6 5 4 2 1 1 1 1 2 3 5 13 15 17 16 15 12 12 11 9 8 8 10 11 12
3 4 4 4 4 4 4 3 2 3 3 4 5 5 5 5 4 4 4 4 3 2 2 3 0 0 1 2 6 11 9 15 14 13 13 12 10 8 8 10 11 12 12
4 5 5 5 6 6 5 4 3 3 2 2 2 2 2 2 1 2 2 4 5 5 6 5 2 1 1 2 6 4 4 11 13 13 11 10 8 8 9 10 11 12 13
6 6 7 7 7 7 7 6 5 5 5 5 4 4 4 3 2 2 1 1 2 3 3 1 1 1 2 2 5 4 4 9 10 10 9 9 9 9 10 11 13 13 13
7 7 7 7 8 8 7 6 7 7 7 6 6 6 6 4 3 3 3 2 1 0 2 1 2 2 2 2 3 3 3 2 1 5 7 8 9 10 11 12 13 13 14
7 7 7 8 8 8 8 8 8 8 8 8 7 7 6 5 6 5 4 4 3 3 1 2 2 1 2 2 3 3 2 2 1 4 6 8 9 10 11 12 12 13 13
7 8 8 8 8 8 8 8 8 9 9 9 8 7 7 6 7 5 5 5 4 4 3 3 2 2 2 2 2 2 2 1 0 2 5 7 9 10 11 11 12 13 13
7 7 8 7 8 8 9 8 8 9 9 9 9 8 7 7 6 5 5 5 4 4 4 4 3 2 2 2 2 1 1 1 1 2 4 5 7 9 10 12 13 13 13
7 7 7 7 7 7 7 8 8 8 8 8 9 8 8 9 9 7 5 4 4 4 4 3 3 2 2 2 1 1 1 1 1 1 1 2 3 3 5 9 12 13 14
7 7 7 7 8 7 12 14 10 7 7 7 7 6 7 8 11 12 11 9 7 4 3 2 2 2 1 1 1 1 1 1 2 1 1 3 3 5 5 4 10 13 13
6 7 7 7 7 9 14 14 13 7 6 6 5 5 5 6 8 5 8 11 10 10 7 2 2 1 0 0 1 1 0 1 3 2 1 4 2 4 4 6 12 13 12
5 5 5 6 5 7 12 12 12 7 5 5 5 4 4 4 4 5 5 5 5 5 5 3 1 1 1 2 2 3 3 2 3 3 2 3 3 3 4 4 10 9 7
4 3 3 4 5 5 9 10 9 4 4 5 4 4 3 3 7 8 4 4 4 4 5 6 4 3 4 4 2 1 0 0 2 2 1 2 2 3 4 3 4 6 7
3 3 3 3 3 4 7 9 7 3 3 3 3 4 6 5 7 7 3 2 2 3 3 4 5 6 5 5 5 1 2 2 1 3 2 1 2 3 5 3 2 3 5
Wind_Direction
195 195 199 199 200 197 198 206 215 221 230 238 236 229 218 198 192 190 196 192 184 180 179 181 181 179 176 172 165 159 154 147 142 136 131 125 118 113 108 102 95 88 82
194 193 199 202 205 205 205 208 213 219 225 225 232 228 221 201 196 192 195 196 192 187 187 189 191 190 187 184 178 173 169 164 158 153 147 141 133 126 119 111 104 96 87
195 194 199 204 208 206 207 211 219 224 232 228 232 228 217 205 197 198 198 197 196 195 194 197 198 198 196 193 188 184 180 177 171 167 161 156 151 146 137 128 117 103 90
200 198 204 208 205 202 204 209 211 215 226 227 229 229 219 207 203 203 202 201 199 200 203 204 204 204 203 201 197 193 189 186 183 181 177 173 171 169 163 155 143 126 100
205 204 211 211 201 204 207 212 210 205 216 223 226 228 223 214 207 204 207 207 206 203 202 209 206 206 207 208 205 200 196 193 193 193 192 189 188 190 191 189 189 195 241
213 212 218 216 206 208 212 211 211 208 211 212 220 228 229 226 215 210 209 209 210 210 206 207 204 208 207 209 212 208 203 200 200 202 202 200 203 207 210 215 223 244 268
219 217 224 222 215 218 221 216 213 213 219 190 191 247 266 243 234 226 214 210 213 212 207 209 204 200 207 210 212 213 209 206 205 208 209 208 210 216 223 234 244 257 272
235 227 225 226 222 225 230 224 215 216 218 184 182 195 260 280 252 229 215 216 217 210 212 212 207 203 198 199 210 210 212 212 211 211 213 214 216 224 234 245 255 265 275
256 245 239 233 229 223 229 228 219 217 225 210 195 181 196 230 249 262 232 227 220 215 217 211 210 207 202 199 200 207 204 211 216 217 217 219 223 231 240 252 262 269 277
281 268 257 249 244 236 233 233 224 220 220 220 214 221 220 195 201 262 270 240 225 221 216 214 212 210 205 200 200 198 196 203 215 223 225 225 229 237 246 256 266 275 282
314 302 283 268 261 254 248 244 236 226 221 224 211 204 222 230 217 224 261 263 255 240 228 220 214 211 207 202 197 197 196 203 212 221 229 233 236 244 257 265 271 281 288
329 335 327 308 288 276 265 256 249 240 235 233 227 210 200 203 207 212 237 240 239 244 256 245 227 216 206 201 200 196 198 205 211 218 225 234 244 254 265 275 282 288 291
337 336 338 333 322 306 292 277 262 253 245 240 237 233 227 228 214 211 228 238 236 237 279 264 246 204 189 179 192 193 201 205 209 214 221 232 245 257 269 277 280 285 287
337 340 347 350 346 342 336 325 303 286 276 264 258 250 245 243 229 219 218 218 237 239 238 238 252 191 152 156 180 178 192 197 203 211 223 237 252 265 273 273 279 283 286
358 4 8 13 12 10 5 1 5 358 354 337 312 290 273 284 271 247 227 214 221 237 236 206 187 165 136 131 165 157 156 193 204 216 228 237 249 262 269 273 277 280 282
20 21 24 26 24 21 19 26 26 22 35 29 22 33 31 15 21 17 358 293 240 236 245 139 135 101 149 150 166 136 160 190 211 219 228 240 251 259 268 272 275 276 278
29 31 31 34 33 29 24 34 38 37 46 42 37 45 45 39 42 34 34 39 30 22 221 103 77 81 121 145 139 126 132 145 198 231 246 254 262 268 271 273 274 275 276
36 36 38 40 39 36 33 39 43 45 49 47 43 48 42 42 45 39 40 40 36 27 93 117 90 88 94 129 116 118 125 146 162 251 263 268 272 274 275 275 275 276 276
42 42 44 45 44 41 41 43 49 52 54 52 48 49 45 50 50 44 46 44 38 37 47 90 81 67 73 94 95 91 106 82 206 260 274 281 284 283 283 284 283 281 281
48 46 47 49 50 50 48 49 55 58 59 57 52 50 49 52 54 50 49 43 43 49 53 70 72 68 69 72 80 88 78 52 336 314 295 292 294 296 295 292 288 287 284
53 50 50 49 51 56 58 59 57 60 59 57 51 46 48 56 64 63 62 49 47 50 51 57 56 56 56 59 62 59 68 21 324 328 328 304 301 290 288 287 287 282 277
54 53 51 51 52 59 67 69 69 58 56 54 50 42 41 42 48 52 58 56 56 58 54 53 47 55 47 48 66 68 74 37 319 309 318 280 262 266 264 254 271 276 275
57 54 50 50 51 59 65 68 70 65 57 51 46 39 39 38 43 38 40 40 37 42 51 86 87 72 111 190 131 94 187 210 241 263 292 282 270 269 267 274 288 286 283
66 59 52 45 45 55 66 69 71 59 53 45 42 44 42 15 27 54 44 33 23 17 27 59 126 196 210 210 193 193 207 234 265 263 214 268 288 276 282 283 293 287 288
75 67 59 50 43 38 63 70 70 54 50 36 26 31 40 13 18 38 50 33 16 357 11 22 17 352 331 315 275 144 158 342 304 285 229 245 292 300 291 288 301 317 322
99 88 68 50 42 24 55 68 72 64 52 33 16 7 8 7 5 16 54 34 354 326 340 351 358 357 359 350 358 82 167 175 240 285 283 275 300 335 317 292 274 281 292